Regional Weather Roundup
Issued by NWS State College, PA

Home | Current Version | Previous Version | Text Only | Print | Product List | Glossary Off
Versions: 1 2 3 4 5 6 7 8 9 10 11 12 13 14 15 16 17 18 19 20 21 22 23 24 25 26 27 28 29 30 31 32 33 34 35 36 37 38 39 40 41 42 43 44 45 46 47 48 49 50

000
ASUS41 KCTP 181410
RWRCTP

REGIONAL WEATHER ROUNDUP
NATIONAL WEATHER SERVICE STATE COLLEGE PA
1000 AM EDT FRI APR 18 2014

Note: "fair" indicates few or no clouds below 12,000 feet with no
significant weather and/or obstructions to visibility.

* = STATION THAT DOES NOT REPORT PRECIPITATION /E.G. RAIN...SNOW...ETC/
    THUNDER OR FOG.

PAZ002>004-007>009-013>016-020>023-029>032-181500-
WESTERN PENNSYLVANIA

CITY           SKY/WX    TMP DP  RH WIND       PRES   REMARKS
ERIE           CLOUDY    52  29  41 S14       30.28S
MEADVILLE      CLOUDY    49  29  46 VRB6      30.29F
FRANKLIN*      CLOUDY    45  28  53 SE6       30.33F
NEW CASTLE     FAIR      48  30  50 S7        30.32F
BEAVER COUNTY  SUNNY     46  30  53 SE7       30.31F
BUTLER*        CLOUDY    46  28  49 SE6       30.35S
PITTSBURGH INT CLOUDY    50  28  42 SE7       30.32S
PITTSBURGH     CLOUDY    50  31  48 SE3       30.33S
INDIANA*       CLOUDY    46  30  53 SE3       30.35F
LATROBE        CLOUDY    50  32  50 CALM      30.35S
WASHINGTON CO* CLOUDY    48  28  46 S5        30.35S
$$

PAZ004>006-010>012-017>019-024>028-033>037-041-042-045-046-049>053-181500-
CENTRAL PENNSYLVANIA

CITY           SKY/WX    TMP DP  RH WIND       PRES   REMARKS
BRADFORD       PTSUNNY   43  28  55 SE8       30.32F
DUBOIS         CLOUDY    44  31  60 SE8       30.33F
CLEARFIELD     CLOUDY    41  32  70 CALM      30.37F
JOHNSTOWN      CLOUDY    40  31  70 S7        30.35S
ALTOONA        PTSUNNY   40  33  76 VRB5      30.41S
STATE COLLEGE  SUNNY     41  30  65 S6        30.39F
WILLIAMSPORT   PTSUNNY   39  29  67 VRB5      30.44F
SELINSGROVE    PTSUNNY   41  29  62 S7        30.47F
FT INDIANTOWN  CLOUDY    39  32  76 NE8       30.48F
CAPITAL CITY   PTSUNNY   40  30  67 E8        30.48F
HARRISBURG     CLOUDY    42  30  62 VRB5      30.47F
YORK           CLOUDY    40  30  67 SE5       30.48F
$$

PAZ038>040-043-044-047-048-054-055-060>062-067>071-181500-
EASTERN PENNSYLVANIA

CITY           SKY/WX    TMP DP  RH WIND       PRES   REMARKS
SCRANTON       PTSUNNY   40  27  59 S5        30.44F
MOUNT POCONO   CLOUDY    33  27  78 SE8       30.43S
ALLENTOWN      CLOUDY    40  28  62 SE5       30.51F
QUAKERTOWN*    CLOUDY    39  30  70 E5        30.51S
READING        CLOUDY    40  28  62 VRB6      30.49F
LANCASTER      PTSUNNY   39  28  64 E7        30.48F
COATESVILLE    PTSUNNY   39  28  65 E6        30.49F
POTTSTOWN      PTSUNNY   40  30  67 NE7       30.52F
BLUE BELL      PTSUNNY   43  32  65 SE3       30.50F
DOYLESTOWN     PTSUNNY   39  29  67 CALM      30.50F
WILLOW GROVE   NOT AVBL
NORTH PHILA    CLOUDY    43  29  57 E9        30.53F
PHILADELPHIA   CLOUDY    43  29  57 VRB7      30.52F
$$



USA.gov is the U.S. government's official web portal to all federal, state and local government web resources and services.